Home   Weather   Chula Vista   Past weeks

Flag for USA Past Weather in Chula Vista, California, USA — Yesterday and Last 2 Weeks

Now
52 °F

Clear.


Feels Like: 50 °F
Forecast: 57 / 79 °F
Wind: 6 mph from East

Location: Brown Field Municipal Airport

Current Time: Apr 29, 2017 at 4:30:04 am

Latest Report: Apr 29, 2017 at 3:53 am


Visibility: 10 mi

Pressure: 29.85 "Hg

Humidity: 75%

Dew Point: 44 °F

Location of Chula VistaLocation

Past Weather in Chula Vista — Graph

°F

Chula Vista Temperature Yesterday

Maximum temperature yesterday: 74 °F (at 2:53 pm)
Minimum temperature yesterday: 52 °F (at 5:53 am)
Average temperature yesterday: 63 °F

High & Low Weather Summary for the Past Weeks

 TemperatureHumidityPressure
High83 °F (Apr 22, 10:53 am)100% (Apr 17, 12:53 am)30.13 "Hg (Apr 17, 12:53 am)
Low47 °F (Apr 15, 5:53 am)27% (Apr 22, 3:53 pm)29.74 "Hg (Apr 28, 2:53 am)
Average62 °F75%29.95 "Hg
* Reported Apr 14 2:19 am — Apr 29 2:53 am, Chula Vista, Weather by CustomWeather, © 2017

Note: Actual official high and low records may vary slightly from our data, if they occured in-between our weather recording intervals... More about our weather records

Advertising

Chula Vista Weather History for the Previous 24 Hours

Scroll right to see more
 ConditionsComfort  
Time TempWeatherWind HumidityBarometerVisibility
2:53 am
Sat, Apr 29
52 °FClear.N/A75%29.84 "Hg10 mi
1:53 am58 °FClear.No wind70%29.83 "Hg10 mi
12:53 am58 °FClear.3 mph81%29.83 "Hg10 mi
11:53 pm
Fri, Apr 28
60 °FClear.3 mph75%29.82 "Hg10 mi
10:53 pm61 °FClear.5 mph70%29.81 "Hg10 mi
9:53 pm61 °FClear.No wind72%29.81 "Hg10 mi
8:53 pm61 °FClear.3 mph72%29.80 "Hg10 mi
7:53 pm63 °FClear.No wind63%29.78 "Hg10 mi
6:53 pm66 °FSunny.6 mph59%29.77 "Hg10 mi
5:53 pm67 °FSunny.10 mph59%29.75 "Hg10 mi
4:53 pm70 °FSunny.10 mph51%29.75 "Hg10 mi
3:53 pm72 °FSunny.12 mph40%29.74 "Hg10 mi
2:53 pm74 °FSunny.13 mph41%29.76 "Hg10 mi
1:53 pm72 °FSunny.12 mph53%29.78 "Hg10 mi
12:53 pm71 °FSunny.9 mph57%29.78 "Hg10 mi
11:53 am70 °FSunny.9 mph55%29.79 "Hg10 mi
10:56 am70 °FSunny.9 mph59%29.81 "Hg9 mi
9:53 am67 °FSunny.3 mph63%29.80 "Hg9 mi
8:53 am63 °FSunny.6 mph75%29.80 "Hg8 mi
8:31 am61 °FHaze.8 mph81%29.81 "Hg6 mi
7:59 am60 °FFog.9 mph86%29.81 "Hg6 mi
6:53 am58 °FOvercast.3 mph93%29.79 "Hg7 mi
5:53 am52 °FPassing clouds.5 mph97%29.77 "Hg7 mi
4:53 am56 °FClear.No wind90%29.76 "Hg7 mi
Weather by CustomWeather, © 2017

See weather overviewHow to use our weather pages